Temp
10 10 10 10 10 10 11 11 11 11 12 12 12 12 12 12 12 12 13 13 13 13 13 13 13 13 12 12 12 11 11 12 12 12 11 11 12 13 15 14 14 14 14 13 13 13 13
10 9 9 9 9 9 10 10 10 10 10 11 11 11 11 11 12 12 12 13 13 13 13 13 12 12 12 14 11 11 11 11 11 10 10 10 10 10 13 13 13 12 12 13 13 13 13
9 8 8 8 8 9 9 9 9 9 10 10 10 11 11 11 10 11 12 12 13 13 13 12 12 11 11 11 11 11 11 10 10 10 10 9 9 10 11 14 12 12 13 15 14 13 13
8 8 8 8 8 8 8 8 8 8 8 9 10 10 10 10 10 11 11 12 12 12 12 11 11 11 12 11 11 10 10 9 9 10 9 10 9 9 11 12 13 14 13 16 16 13 13
8 8 8 8 8 8 8 8 8 8 8 9 9 9 9 9 10 10 11 12 12 12 12 11 11 10 12 11 10 10 10 9 8 8 9 8 9 11 12 15 16 15 15 15 15 14 13
8 7 7 7 7 7 8 8 8 9 9 9 9 9 8 8 9 10 11 12 12 11 11 11 11 11 11 10 9 10 10 10 9 9 9 10 11 14 15 15 14 13 13 14 14 15 13
8 8 8 8 9 8 8 8 9 9 9 8 8 8 8 8 8 9 11 11 10 9 9 9 8 9 9 9 10 9 10 9 9 10 14 12 13 14 13 12 12 12 12 13 15 14 11
8 8 8 9 9 9 9 10 10 10 9 9 8 8 8 8 8 8 10 7 6 6 6 8 9 8 9 10 10 9 9 10 11 13 12 13 14 13 11 11 11 12 13 14 14 13 11
8 8 8 9 9 9 10 10 10 10 10 10 8 7 7 7 8 8 7 7 6 5 7 10 8 9 9 9 10 10 9 9 11 12 12 12 13 11 11 12 12 14 14 13 11 11 13
7 7 8 9 9 10 10 10 10 10 10 10 8 7 7 7 7 7 6 6 6 5 11 12 11 9 9 9 11 8 8 9 11 11 11 12 10 10 11 12 11 12 11 11 10 10 12
7 7 8 9 9 9 10 10 9 10 9 9 8 7 6 6 6 6 6 7 6 5 12 12 11 9 9 10 10 9 9 9 11 11 11 12 11 11 11 11 10 12 11 10 9 10 10
7 7 8 8 9 9 9 9 8 8 8 8 7 6 7 5 6 6 7 7 5 11 11 13 12 12 12 11 11 10 9 8 8 10 10 11 9 9 11 10 9 10 10 12 10 10 10
7 7 8 8 7 8 7 7 7 7 7 6 6 6 6 6 5 7 7 6 11 11 13 13 12 13 13 13 13 12 12 13 12 10 12 13 12 10 8 10 9 10 12 12 12 11 13
7 7 7 7 6 6 6 6 6 6 6 6 6 6 6 6 6 7 6 11 10 12 13 12 12 12 12 12 13 12 12 13 11 12 11 10 11 11 10 10 7 10 11 9 9 11 12
7 7 7 6 5 5 5 5 5 5 5 5 6 4 3 5 6 6 7 11 12 12 11 11 13 12 13 12 12 13 13 13 12 12 12 11 12 10 10 10 10 11 11 11 9 10 8
6 7 6 6 5 5 5 5 4 6 5 5 5 4 4 5 6 6 10 10 11 9 10 11 12 12 13 13 12 13 13 12 12 11 10 11 10 10 9 8 9 9 10 10 10 9 9
6 6 6 5 5 4 4 4 5 6 5 5 4 6 4 5 6 7 9 10 9 9 8 10 11 11 12 11 11 12 13 11 11 10 10 11 10 11 10 9 11 10 10 10 10 10 9
6 6 5 4 4 4 4 3 4 5 5 5 3 8 4 5 8 8 9 7 6 8 9 9 9 10 10 11 11 11 11 11 10 10 11 11 10 9 11 11 10 10 11 11 9 9 9
6 5 4 4 3 3 3 3 3 4 4 4 4 4 4 5 9 9 8 7 7 8 9 9 9 9 10 10 9 11 11 9 9 10 10 10 10 9 12 9 9 9 11 10 10 10 8
6 5 4 3 3 2 2 3 3 3 3 3 4 7 5 5 5 6 7 8 7 7 7 7 8 8 9 9 10 9 9 9 8 8 7 8 9 9 9 11 11 9 10 11 10 9 9
5 4 3 2 2 2 2 2 2 3 3 3 3 6 4 7 7 6 7 7 7 7 7 7 8 7 6 7 9 9 9 8 9 8 8 9 8 9 10 9 9 8 8 9 9 9 9
5 3 2 2 2 1 1 1 2 2 2 1 4 4 4 5 5 5 5 7 6 7 6 7 6 5 6 5 7 5 5 7 7 8 8 8 7 8 7 9 9 8 9 9 10 10 10
5 3 2 1 1 1 0 0 1 1 1 0 1 1 2 4 5 6 7 6 4 4 4 4 3 3 4 5 4 5 4 4 5 6 6 6 6 6 6 9 8 8 11 11 11 11 11
4 2 0 -0 -0 -0 -0 0 0 0 0 0 0 0 2 5 4 5 4 3 4 4 3 4 4 4 4 3 3 4 4 5 5 6 6 6 6 5 5 7 6 12 12 12 11 12 11
4 1 0 -0 -1 -0 -0 -0 -0 -0 0 -0 -0 0 1 3 3 3 3 3 3 3 3 3 3 3 2 2 4 5 8 7 7 7 7 7 6 6 5 7 9 10 10 11 11 10 10
2 2 1 -0 -0 -0 -0 -1 -0 -0 -0 -1 -1 -1 -1 1 3 2 2 2 2 3 4 3 2 2 1 3 4 4 6 7 7 5 4 5 6 6 7 5 7 9 9 9 10 11 9
1 1 -0 -1 -1 -1 -1 -0 -0 -0 -0 -1 -1 -1 -1 -1 1 0 2 2 2 2 3 3 2 2 2 3 4 5 5 7 5 7 5 4 3 4 5 6 8 10 8 8 9 9 8
-0 -0 -1 -0 -0 -1 -1 -1 -1 -0 -0 -1 -1 -2 -1 -2 -1 -1 -0 0 1 0 2 2 2 2 2 2 4 5 6 6 5 7 7 6 5 4 4 4 5 8 9 8 8 8 7
-1 -1 -0 -1 -1 -1 -1 -1 -1 -1 -1 -1 -1 -2 -2 -2 -1 -1 -1 -1 -1 -0 -0 0 1 2 2 2 2 2 3 3 4 4 6 5 7 6 6 7 9 8 7 7 6 7 7
Height
1571 1569 1568 1567 1565 1563 1561 1558 1556 1554 1551 1549 1546 1543 1540 1537 1533 1529 1525 1522 1519 1516 1512 1510 1508 1507 1507 1508 1509 1506 1505 1503 1501 1500 1499 1499 1498 1496 1493 1494 1494 1492 1492 1492 1490 1488 1486
1572 1570 1569 1568 1566 1564 1562 1560 1557 1555 1552 1549 1546 1543 1539 1536 1531 1527 1524 1521 1518 1515 1512 1509 1507 1507 1506 1507 1507 1506 1505 1504 1502 1501 1500 1500 1500 1500 1497 1495 1494 1494 1493 1491 1490 1487 1484
1572 1571 1570 1569 1567 1565 1562 1560 1558 1556 1552 1549 1546 1542 1538 1534 1530 1526 1523 1520 1516 1513 1511 1508 1507 1506 1506 1508 1505 1506 1506 1505 1503 1501 1501 1499 1500 1500 1499 1493 1495 1494 1491 1484 1488 1487 1484
1573 1572 1571 1569 1567 1565 1563 1561 1558 1556 1553 1549 1546 1542 1538 1533 1528 1524 1520 1517 1514 1511 1510 1508 1507 1507 1509 1507 1506 1506 1505 1505 1503 1501 1501 1499 1499 1499 1499 1496 1491 1489 1489 1478 1478 1486 1485
1574 1573 1571 1569 1567 1565 1563 1560 1558 1555 1552 1549 1545 1542 1537 1532 1527 1523 1519 1515 1512 1509 1508 1507 1507 1507 1509 1508 1508 1506 1505 1505 1504 1502 1500 1499 1499 1499 1497 1490 1483 1483 1482 1479 1479 1480 1483
1574 1572 1570 1568 1566 1564 1562 1559 1557 1554 1551 1547 1544 1540 1536 1531 1526 1521 1518 1513 1510 1508 1508 1506 1507 1510 1509 1511 1508 1505 1504 1503 1505 1504 1503 1501 1500 1494 1489 1489 1493 1492 1488 1483 1482 1475 1479
1573 1571 1569 1567 1565 1563 1561 1558 1556 1553 1549 1546 1542 1538 1534 1530 1526 1521 1517 1513 1515 1513 1509 1509 1509 1509 1509 1508 1507 1507 1505 1503 1504 1505 1499 1500 1495 1491 1494 1495 1496 1495 1492 1484 1473 1478 1482
1571 1570 1567 1566 1564 1562 1559 1556 1554 1550 1547 1543 1539 1536 1533 1529 1526 1523 1520 1518 1522 1522 1515 1509 1508 1507 1507 1507 1508 1508 1506 1506 1504 1500 1501 1499 1493 1496 1498 1498 1497 1493 1488 1477 1474 1477 1482
1570 1568 1566 1564 1562 1559 1557 1555 1552 1548 1544 1540 1537 1534 1531 1528 1526 1525 1522 1522 1521 1520 1518 1510 1509 1509 1509 1509 1507 1507 1508 1507 1505 1501 1500 1497 1496 1500 1499 1494 1490 1484 1482 1482 1486 1479 1469
1567 1565 1563 1561 1559 1557 1555 1552 1550 1546 1542 1538 1534 1531 1529 1528 1529 1527 1526 1523 1521 1519 1513 1508 1509 1509 1511 1510 1509 1508 1507 1509 1505 1503 1502 1497 1501 1500 1498 1495 1494 1486 1488 1487 1485 1484 1473
1564 1563 1560 1558 1557 1555 1552 1550 1548 1545 1541 1537 1533 1530 1528 1527 1527 1528 1528 1523 1521 1520 1514 1511 1510 1510 1509 1511 1509 1508 1507 1508 1505 1503 1505 1497 1499 1498 1497 1495 1497 1488 1489 1487 1487 1484 1482
1562 1560 1558 1556 1554 1552 1550 1548 1546 1543 1539 1536 1532 1528 1527 1528 1526 1526 1525 1523 1522 1518 1515 1507 1509 1509 1507 1507 1508 1508 1508 1508 1508 1506 1503 1498 1502 1502 1498 1498 1499 1495 1488 1479 1483 1481 1476
1559 1557 1555 1554 1553 1550 1549 1546 1544 1541 1538 1535 1531 1528 1525 1525 1527 1525 1523 1525 1520 1516 1511 1509 1509 1508 1508 1505 1504 1504 1502 1499 1501 1503 1497 1492 1493 1499 1501 1496 1498 1494 1482 1478 1475 1472 1461
1556 1554 1553 1552 1551 1549 1547 1545 1542 1540 1537 1534 1531 1528 1525 1524 1524 1525 1524 1524 1522 1512 1510 1513 1511 1509 1507 1506 1502 1503 1501 1496 1502 1501 1499 1499 1493 1494 1498 1497 1503 1495 1492 1496 1493 1475 1467
1553 1552 1551 1550 1549 1548 1546 1544 1541 1538 1536 1533 1531 1529 1527 1525 1525 1525 1528 1522 1515 1516 1518 1516 1509 1507 1503 1507 1508 1502 1499 1497 1500 1502 1502 1501 1493 1498 1499 1498 1499 1492 1491 1495 1497 1482 1486
1551 1549 1548 1547 1547 1545 1544 1542 1540 1537 1535 1533 1530 1530 1529 1527 1525 1526 1525 1522 1520 1523 1521 1518 1513 1511 1506 1504 1507 1502 1498 1504 1503 1506 1506 1501 1500 1494 1499 1502 1500 1495 1497 1492 1491 1487 1477
1547 1546 1545 1545 1544 1543 1542 1540 1537 1535 1533 1532 1531 1530 1528 1527 1527 1528 1523 1522 1524 1524 1524 1520 1516 1513 1508 1509 1507 1504 1498 1506 1505 1505 1505 1502 1504 1494 1496 1494 1487 1493 1490 1492 1491 1488 1483
1542 1543 1542 1542 1542 1542 1541 1539 1536 1534 1533 1532 1531 1527 1527 1527 1529 1526 1522 1527 1529 1524 1524 1522 1521 1517 1512 1512 1509 1505 1503 1503 1508 1508 1503 1502 1500 1497 1489 1487 1491 1489 1483 1485 1490 1486 1486
1538 1538 1539 1539 1540 1539 1539 1538 1535 1533 1533 1532 1532 1530 1527 1527 1522 1521 1526 1526 1526 1524 1522 1521 1518 1517 1516 1514 1514 1506 1504 1510 1511 1508 1504 1503 1498 1496 1479 1492 1492 1489 1484 1486 1487 1487 1486
1532 1534 1535 1536 1537 1537 1537 1537 1535 1534 1533 1533 1534 1528 1528 1528 1528 1528 1526 1522 1523 1525 1525 1524 1520 1519 1517 1513 1511 1508 1506 1508 1510 1510 1508 1508 1500 1497 1492 1479 1482 1485 1482 1479 1479 1481 1473
1527 1529 1531 1532 1534 1535 1535 1536 1534 1533 1534 1534 1534 1531 1530 1524 1527 1530 1529 1528 1526 1525 1525 1523 1520 1522 1521 1516 1508 1507 1507 1509 1507 1507 1507 1505 1497 1491 1487 1488 1488 1483 1478 1475 1472 1468 1471
1521 1524 1526 1529 1530 1532 1533 1534 1533 1533 1533 1535 1535 1532 1531 1530 1531 1532 1529 1525 1527 1525 1527 1521 1523 1526 1523 1522 1518 1517 1519 1512 1509 1506 1505 1503 1497 1493 1491 1484 1479 1475 1466 1460 1455 1455 1456
1516 1519 1522 1524 1526 1529 1531 1532 1532 1532 1533 1534 1532 1532 1531 1530 1530 1529 1526 1527 1530 1533 1530 1530 1529 1529 1525 1521 1520 1518 1517 1516 1513 1509 1508 1506 1503 1501 1489 1481 1477 1464 1439 1444 1441 1442 1442
1511 1515 1518 1521 1524 1525 1528 1529 1529 1531 1533 1533 1531 1530 1532 1525 1528 1527 1528 1530 1531 1531 1532 1529 1529 1527 1524 1522 1518 1512 1506 1502 1501 1498 1501 1498 1498 1502 1492 1488 1477 1437 1440 1439 1440 1437 1440
1506 1511 1514 1517 1521 1523 1525 1528 1528 1530 1531 1532 1532 1532 1531 1527 1527 1528 1530 1529 1530 1528 1527 1527 1526 1526 1523 1521 1513 1498 1484 1485 1481 1483 1484 1488 1494 1492 1489 1476 1457 1443 1442 1439 1438 1441 1443
1502 1506 1510 1513 1517 1520 1522 1525 1526 1527 1528 1531 1532 1533 1534 1533 1526 1527 1528 1528 1527 1524 1522 1522 1522 1523 1522 1517 1512 1502 1484 1474 1474 1480 1485 1486 1486 1487 1477 1486 1463 1446 1446 1445 1442 1436 1445
1500 1503 1507 1510 1515 1518 1520 1522 1523 1525 1526 1528 1528 1530 1533 1533 1530 1530 1528 1526 1527 1526 1524 1521 1520 1519 1521 1514 1507 1497 1486 1481 1480 1468 1478 1485 1488 1484 1479 1472 1457 1447 1449 1448 1442 1448 1447
1497 1501 1505 1508 1513 1517 1518 1521 1522 1523 1523 1526 1527 1528 1530 1528 1527 1526 1527 1525 1525 1525 1523 1522 1522 1514 1517 1512 1503 1492 1484 1480 1480 1471 1471 1473 1478 1480 1480 1477 1469 1454 1450 1448 1454 1451 1449
1496 1500 1504 1505 1509 1513 1517 1519 1521 1523 1524 1525 1525 1526 1527 1527 1525 1520 1520 1520 1520 1521 1522 1522 1519 1515 1516 1513 1508 1503 1496 1494 1485 1480 1474 1472 1466 1464 1462 1454 1451 1453 1456 1456 1455 1453 1450
Wind_Speed
10 10 12 12 12 13 12 13 13 14 15 16 17 19 21 21 23 22 22 21 20 20 17 13 10 6 3 1 0 4 7 10 11 11 11 11 11 6 5 5 4 3 7 6 9 13 14
8 9 10 11 12 12 13 14 14 15 16 18 20 21 22 22 23 24 23 22 21 21 18 14 7 6 1 2 3 3 7 10 9 8 8 9 6 6 3 4 4 9 10 10 5 9 9
8 9 10 11 11 12 13 14 15 15 17 19 21 23 24 24 25 26 24 22 21 21 18 12 7 6 2 1 4 3 8 10 7 6 4 5 4 4 6 3 4 5 6 4 4 6 9
8 9 11 10 11 13 14 16 16 17 19 21 22 24 25 25 26 25 24 22 21 20 14 7 8 2 1 2 2 3 7 7 8 5 5 4 4 3 3 7 3 4 3 5 5 3 2
8 10 12 13 13 14 16 17 19 20 22 23 25 25 26 25 26 24 23 21 20 15 10 7 2 2 1 1 1 5 6 3 7 4 4 3 1 2 3 6 4 7 8 9 8 2 4
10 14 15 15 16 17 17 18 19 22 24 26 28 27 25 24 24 23 22 19 13 9 6 4 3 0 2 2 5 6 5 5 4 6 3 3 2 3 1 6 4 9 9 9 13 7 8
13 14 17 17 18 18 19 21 22 25 27 29 29 25 23 22 23 20 21 14 9 2 7 4 5 4 2 5 4 4 5 5 3 5 5 1 4 1 3 3 4 7 10 15 14 8 13
14 16 18 18 17 17 19 20 23 25 27 27 26 24 23 18 19 18 15 9 8 8 9 5 3 1 3 1 2 3 7 3 3 5 6 5 3 2 2 3 5 9 12 12 6 5 16
17 18 19 19 18 18 19 21 22 24 26 26 22 21 19 15 12 17 13 16 13 9 5 2 2 1 0 1 1 1 6 4 3 4 5 6 4 1 5 6 7 8 9 12 12 19 6
19 20 20 19 17 18 20 21 22 23 24 24 21 20 16 13 6 14 7 17 13 7 3 2 1 0 2 3 2 2 2 2 2 5 6 5 2 5 6 7 6 9 5 10 14 11 5
21 22 20 18 16 17 18 19 19 20 21 21 19 17 14 9 9 7 14 15 11 3 3 2 2 2 1 3 2 1 2 1 4 6 2 2 4 5 6 3 4 5 14 13 9 6 9
22 21 20 18 16 16 16 16 16 17 19 19 17 16 13 7 7 8 13 13 4 3 3 1 1 2 4 2 1 1 1 1 2 4 4 5 1 3 5 5 5 12 11 9 4 4 3
23 20 18 16 15 14 14 13 14 16 18 18 17 15 11 8 4 9 9 5 3 2 2 3 2 3 6 3 2 2 2 3 3 3 2 4 4 2 2 7 2 10 9 4 3 2 6
22 19 17 15 13 12 12 13 14 15 18 19 17 13 10 6 5 4 5 3 4 2 3 4 3 9 5 3 3 2 4 3 3 3 4 3 1 3 5 2 2 6 7 3 5 5 10
22 20 17 15 13 12 13 14 14 16 18 18 14 9 6 7 3 2 3 2 3 4 4 8 9 5 1 1 4 4 2 4 2 1 4 4 2 2 1 1 2 3 2 4 5 8 4
22 20 17 16 14 13 14 15 16 17 16 15 12 4 5 6 2 2 3 2 2 4 5 3 4 2 5 4 6 3 3 3 1 2 3 2 6 2 3 2 4 3 4 3 3 6 7
22 20 17 15 14 13 14 16 17 16 13 11 6 3 6 2 3 2 2 1 3 3 4 3 4 6 6 8 5 8 3 3 3 1 2 3 2 1 1 6 4 4 3 5 3 4 4
21 19 17 14 13 12 14 15 15 13 10 7 2 2 5 2 3 1 2 2 4 4 2 3 4 8 8 9 8 5 5 2 4 2 3 1 5 5 10 4 5 8 6 4 3 2 5
20 19 16 14 12 11 10 11 11 9 7 6 3 2 4 2 2 2 1 3 3 4 4 3 4 2 3 3 5 5 5 4 4 3 4 2 3 6 2 3 1 4 5 6 7 9 12
21 19 15 13 10 7 5 7 6 6 4 3 3 2 1 1 1 2 4 2 2 3 8 5 8 8 8 10 10 8 5 0 5 6 5 3 7 11 12 17 15 19 17 15 13 10 14
20 18 16 13 9 6 5 4 5 5 2 0 2 0 1 0 3 3 4 3 5 4 2 4 3 3 5 5 7 12 7 8 6 3 4 4 13 14 15 17 19 23 23 22 20 21 16
21 19 16 13 11 7 4 3 4 3 1 1 3 2 1 4 3 4 2 1 5 4 4 3 5 8 7 5 9 10 8 9 8 4 4 2 9 11 17 19 17 20 23 26 24 21 19
23 21 19 16 12 10 6 3 3 3 1 2 3 1 1 2 1 3 2 2 1 6 1 3 2 7 9 12 11 13 13 17 18 15 13 14 9 8 13 16 18 17 10 4 2 3 15
24 20 18 15 15 11 8 5 4 3 2 4 5 4 2 2 4 4 2 3 6 8 10 12 17 15 9 14 21 25 31 34 32 28 27 17 13 6 7 13 9 5 13 11 9 3 6
24 23 20 17 14 12 9 8 6 5 4 5 5 3 2 3 3 7 8 8 10 10 11 13 16 12 10 14 8 9 7 10 12 17 19 22 17 10 6 9 18 22 2 3 2 6 7
24 22 20 18 17 15 12 10 8 9 6 5 5 5 3 3 2 5 3 5 6 8 9 7 6 11 4 4 5 5 4 5 3 4 2 6 13 11 7 5 5 5 3 6 4 6 12
21 19 17 15 16 15 12 10 7 7 7 7 7 8 7 5 8 6 7 5 6 8 5 12 5 5 8 6 8 9 11 10 5 6 4 3 4 15 13 10 9 8 8 6 4 5 14
21 19 18 16 14 12 10 8 6 6 8 8 6 5 8 4 10 11 14 17 12 9 7 8 10 3 4 4 4 6 6 5 6 10 5 5 5 5 7 6 11 11 5 5 5 8 12
21 18 17 17 16 14 11 8 7 6 6 7 7 8 8 9 11 14 18 19 21 22 19 14 11 5 3 4 2 3 6 6 10 7 6 9 7 4 7 5 4 4 6 8 5 8 12
Wind_Direction
50 43 39 31 25 19 15 10 9 6 3 2 359 355 352 349 342 341 335 336 337 336 336 335 331 336 352 324 11 282 339 352 360 7 18 12 16 354 17 346 330 320 340 302 299 297 292
39 29 24 18 13 13 7 4 3 1 359 358 354 351 348 347 339 336 332 333 332 329 331 330 329 330 343 218 237 294 338 347 351 11 19 26 14 346 320 335 325 328 309 291 291 308 289
22 16 10 10 6 5 1 -0 359 358 354 350 348 345 342 339 338 337 332 331 328 325 325 327 332 326 135 164 207 302 336 335 340 354 6 3 355 342 326 304 321 306 301 252 208 330 307
14 7 0 352 348 347 347 347 345 343 342 343 342 340 337 337 337 336 331 331 325 321 321 323 339 88 357 199 200 334 340 321 336 341 342 343 352 311 304 310 241 281 263 352 70 306 11
349 348 343 338 331 333 335 336 336 334 334 334 335 335 334 334 336 338 337 333 323 320 321 331 21 69 81 173 33 320 336 336 319 330 344 337 349 303 292 307 252 209 324 329 327 242 298
326 327 327 329 325 322 325 330 331 329 329 330 329 331 334 332 337 342 343 339 329 337 354 1 49 310 98 329 297 322 331 338 319 306 299 287 262 257 276 354 343 321 320 319 313 321 326
320 318 318 321 319 309 316 320 321 321 324 323 324 327 335 333 341 349 355 1 348 325 354 306 301 291 316 306 325 332 338 344 317 280 300 350 247 313 4 340 313 300 298 305 314 20 321
321 319 316 319 316 313 314 319 320 322 320 320 324 322 332 337 344 356 3 49 22 320 315 311 333 313 279 338 308 341 356 353 321 308 314 233 230 56 325 276 285 296 296 311 318 339 324
315 317 315 314 311 310 313 315 318 319 321 324 323 321 336 342 348 0 7 13 358 346 272 291 282 351 227 0 330 315 359 343 316 287 323 289 50 250 295 299 296 303 302 323 309 322 289
310 315 313 310 307 308 312 314 318 324 326 328 326 320 331 347 12 350 347 348 351 351 286 102 142 164 330 312 213 316 355 3 242 322 331 283 81 299 295 294 320 313 1 317 314 330 314
305 310 310 307 304 306 310 315 323 327 329 330 332 326 327 339 332 356 329 338 341 29 342 46 90 281 279 291 320 156 341 298 303 318 292 23 299 299 287 326 324 295 330 306 317 296 314
306 305 307 305 304 308 312 319 327 332 336 339 337 334 332 333 328 314 332 332 345 251 267 60 10 323 274 208 200 295 244 331 297 294 231 267 285 267 336 313 290 305 305 284 258 271 252
308 302 301 299 302 306 312 320 328 337 343 345 337 333 332 314 277 318 335 338 281 241 116 40 355 334 321 294 230 255 265 243 313 330 342 304 202 153 270 291 322 303 307 312 289 242 306
303 300 296 293 295 300 307 314 324 335 339 346 340 334 340 329 311 319 352 250 266 355 3 354 313 302 275 338 182 283 275 246 160 267 302 319 249 188 140 348 313 338 337 17 310 316 305
299 295 289 286 288 292 298 307 317 326 332 344 347 345 360 358 18 39 294 258 330 7 358 339 311 280 244 273 295 304 256 318 6 293 315 323 272 122 232 224 288 46 288 353 280 269 272
294 287 280 278 282 286 292 301 310 319 327 336 346 346 342 8 41 92 258 280 322 354 338 314 304 13 307 349 307 309 303 60 26 10 310 16 290 125 103 267 206 236 356 259 205 309 305
287 278 272 273 280 282 290 300 309 320 327 332 346 289 328 14 65 246 251 303 305 337 327 306 314 287 292 305 298 299 307 89 4 97 278 311 251 182 241 199 296 180 194 229 270 255 300
280 271 268 269 271 281 293 302 313 329 331 336 309 242 338 75 240 232 263 6 327 315 312 294 284 280 277 305 292 276 286 358 7 303 275 34 311 286 272 8 282 262 260 275 292 271 246
270 263 255 254 264 276 292 308 320 335 343 358 313 278 335 60 258 210 163 261 271 295 300 304 273 270 315 280 286 265 284 132 28 330 339 69 244 301 217 146 165 234 197 258 284 286 267
259 250 241 242 249 262 297 311 324 339 345 357 299 240 93 77 67 294 291 255 268 267 276 278 288 285 282 266 257 274 283 142 315 293 309 292 256 260 272 294 321 291 275 276 265 264 265
246 235 227 226 234 244 267 307 333 339 337 328 317 349 351 203 148 294 283 308 301 302 255 284 221 347 332 285 286 264 287 301 263 281 251 252 266 270 274 288 292 282 280 276 256 248 248
236 225 222 223 225 233 244 301 327 338 236 238 280 274 207 292 276 262 181 275 290 298 266 251 300 339 312 286 304 296 325 287 281 280 271 229 277 305 285 288 282 287 278 271 255 249 253
229 219 216 218 225 228 235 268 319 330 264 243 220 190 351 79 206 259 278 8 76 318 88 321 70 328 308 306 310 297 278 272 265 270 273 273 276 295 275 291 315 285 265 296 241 234 234
222 212 212 218 223 225 228 233 263 296 265 211 187 143 198 205 218 237 290 244 270 279 280 286 290 288 286 315 300 281 264 256 253 254 246 252 250 248 286 302 256 228 311 286 253 254 241
214 210 211 210 212 210 221 229 245 274 255 208 188 157 194 260 271 266 264 274 281 275 271 276 294 297 306 304 294 296 260 241 246 254 256 232 241 253 244 255 286 291 53 80 272 131 34
209 209 210 206 212 202 215 232 248 259 233 212 215 189 183 300 236 237 244 277 289 291 278 245 298 310 293 274 259 260 276 342 277 183 356 236 234 222 220 240 263 52 37 348 305 186 10
197 190 184 184 191 204 219 235 227 215 220 210 233 203 210 229 263 249 254 273 298 278 273 290 315 292 280 260 258 265 266 255 261 263 166 146 193 217 225 245 265 331 342 331 249 28 355
183 179 181 183 189 201 200 187 185 185 191 203 235 221 220 242 262 248 250 259 261 255 269 286 316 172 258 256 261 268 278 277 279 271 274 229 210 203 222 233 254 2 300 317 24 16 12
171 172 176 173 168 177 186 190 187 190 198 222 241 258 267 263 259 265 266 254 249 256 272 270 252 290 318 277 262 302 293 305 301 281 325 252 261 296 217 222 85 26 360 343 325 342 9